Regional Weather Roundup
Issued by NWS

Home | Current Version | Previous Version | Graphics & Text | Print | Product List | Glossary On
Versions: 1 2 3 4 5 6 7 8 9 10 11 12 13 14 15 16 17 18 19 20 21 22 23 24 25 26 27 28 29 30 31 32 33 34 35 36 37 38 39 40 41 42 43 44 45 46 47 48 49 50
000
ASUS43 KLOT 081303
RWRIL

ILLINOIS REGIONAL WEATHER ROUNDUP
NATIONAL WEATHER SERVICE CHICAGO/ROMEOVILLE IL
700 AM CST MON FEB 08 2016

NOTE: "FAIR" INDICATES FEW OR NO CLOUDS BELOW 12,000 FEET WITH NO
SIGNIFICANT WEATHER AND/OR OBSTRUCTIONS TO VISIBILITY.

* THESE STATIONS ARE NOT UNDER NWS QUALITY CONTROL. THEY ALSO MAY NOT
  REPORT WEATHER SUCH AS PRECIPITATION OR FOG.

ILZ001-002-007-009-015-016-024-081400-
NORTHWEST ILLINOIS

CITY           SKY/WX    TMP DP  RH WIND       PRES   REMARKS
MOLINE         CLOUDY    21  12  68 NW15G24   29.75R HAZE    WCI   8
STERLING*      CLOUDY    21  16  79 W20       29.68R WCI   6
$$

ILZ003-004-008-010-011-017-018-081400-
NORTH CENTRAL ILLINOIS

CITY           SKY/WX    TMP DP  RH WIND       PRES   REMARKS
ROCKFORD       CLOUDY    26  19  74 W14       29.67R WCI  14
FREEPORT*      CLOUDY    23  18  81 W13G22    29.69R WCI  11
DE KALB*       CLOUDY    28  22  76 W9        29.64R WCI  19
$$

ILZ005-006-012>014-019>023-081400-
NORTHEAST ILLINOIS

CITY           SKY/WX    TMP DP  RH WIND       PRES   REMARKS
CHICAGO-OHARE  LGT SNOW  30  27  88 NW10      29.62R FOG     WCI  21
CHICAGO-MIDWAY FLURRIES  33  28  81 W8        29.63R WCI  26
AURORA         CLOUDY    29  21  72 W17       29.65R WCI  17
LANSING*       LGT RAIN  32  31  95 W6        29.64S WCI  26
WAUKEGAN       CLOUDY    31  29  92 W7        29.60R FOG     WCI  24
DUPAGE AIRPORT CLOUDY    29  22  75 W13       29.63R WCI  19
WHEELING       LGT SNOW  30  25  81 W12       29.63R WCI  20
NORTHERLY ISL    N/A     33  29  85 W12         N/A  WCI  24
$$

LMZ740>746-081400-
SOUTHERN LAKE MICHIGAN

STATION/POSITION SKY/WX   TEMP    WIND        PRES    VSBY  WAVE
                          AIR SEA DIR/SP/G                  HT/PER
                          (F)     (DEG/KT/KT) (MB)    (MI)  (FT/S)
HARRISON CRIB              33     260/ 12/ 14   N/A
BURNHAM HARBOR             33     270/  9/ 10   N/A
CALUMET HARBOR             31     220/  5/  8 1002.8F
BURNS HARBOR               31     210/ 10/ 12 1004.4S
MICHIGAN CITY              30     180/ 10/ 13   N/A
$$

ILZ025>027-034>036-040-047-049-050-058-095>099-081400-
WEST-CENTRAL ILLINOIS

CITY           SKY/WX    TMP DP  RH WIND       PRES   REMARKS
QUINCY         LGT SNOW  24  21  88 NW18      29.81R VSB 3/4 WCI  10
MACOMB*        FLURRIES  22  20  90 NW17G23   29.81R WCI   8
$$

ILZ028>032-037-038-041>044-048-051>054-059>061-081400-
CENTRAL ILLINOIS

CITY           SKY/WX    TMP DP  RH WIND       PRES   REMARKS
BLOOMINGTON    CLOUDY    30  28  92 NW17      29.70R WCI  18
DECATUR        LGT SNOW  32  28  85 NW18      29.70R FOG     WCI  20
PEORIA         LGT SNOW  24  16  71 W18G26    29.75R WCI  10
LINCOLN*       CLOUDY    30  24  78 NW13G21   29.74R WCI  20
SPRINGFIELD    FLURRIES  29  22  75 NW20G31   29.75R WCI  16
TAYLORVILLE    NOT AVBL
$$

ILZ033-039-045-046-055>057-062-063-081400-
EAST-CENTRAL ILLINOIS

CITY           SKY/WX    TMP DP  RH WIND       PRES   REMARKS
CHAMPAIGN      CLOUDY    33  31  92 W10       29.68S WCI  25
MATTOON        CLOUDY    33  30  88 W7        29.69S WCI  27
$$

ILZ079-100>102-081400-
SOUTHWEST ILLINOIS

CITY           SKY/WX    TMP DP  RH WIND       PRES   REMARKS
ALTON          CLOUDY    32  25  74 W17G30    29.78R WCI  21
BELLEVILLE     MOCLDY    33  18  53 NW20G32   29.77R WCI  22
CAHOKIA*       CLOUDY    34  15  46 W17G28    29.80R WCI  23
SPARTA*        MOCLDY    32  20  61 NW9       29.80R WCI  24
$$

ILZ064>066-069>071-074>076-080>082-084>086-088>090-092>094-081400-
SOUTH-CENTRAL ILLINOIS

CITY           SKY/WX    TMP DP  RH WIND       PRES   REMARKS
CARBONDALE     CLOUDY    36  24  62 W14G20    29.80S WCI  27
MARION         CLOUDY    37  28  70 W14       29.80R WCI  29
MT. VERNON     CLOUDY    36  27  69 W12       29.76S WCI  27
CENTRALIA*     CLOUDY    36  26  69 W18G29    29.75S WCI  25
SALEM*         CLOUDY    37  29  75 W16       29.75S WCI  27
$$

ILZ067-068-072-073-078-083-087-091-081400-
SOUTHEAST ILLINOIS

CITY           SKY/WX    TMP DP  RH WIND       PRES   REMARKS
LAWRENCEVILLE  LGT SNOW  34  31  88 W13       29.73S FOG     WCI  25
HARRISBURG*    FLURRIES  36  32  86 W15G22    29.79R WCI  26
ROBINSON*      CLOUDY    34  32  94 W7        29.73F WCI  27
CARMI*         CLOUDY    34  32  93 W8        29.76R WCI  27
$$

ABBREVIATIONS USED IN REMARKS
   TC - TEMPERATURE IN CELSIUS
  WCI - WIND CHILL INDEX
   HX - HEAT INDEX
  VSB - VISIBILITY
$$





USA.gov is the U.S. government's official web portal to all federal, state and local government web resources and services.